EW7225 Weather Reports


time (UTC)temp
C
wind
direction
speed
KPH
gust
KPH
rain 1hr
cm
rain 24hr
cm
rain mn
cm
humidity
%
barometer
mb
20260906073528 25 181 1.6 4.8 0.00 0.00 0.00 52 1021.3
20260906072520 25 189 3.2 4.8 0.00 0.00 0.00 50 1021.2
20260906071533 25 198 3.2 4.8 0.00 0.00 0.00 50 1021.1
20260906070546 25 178 3.2 4.8 0.00 0.00 0.00 51 1021.2
20260906065520 25 182 1.6 3.2 0.00 0.00 0.00 53 1021.2
20260906064533 26 168 1.6 1.6 0.00 0.00 0.00 55 1021.2
20260906063527 24 157 0.0 1.6 0.00 0.00 0.00 56 1021.1
20260906062519 24 154 0.0 1.6 0.00 0.00 0.00 58 1021.1
20260906061532 25 0.0 0.0 0.00 0.00 0.00 57 1020.9
20260906060526 25 0.0 0.0 0.00 0.00 0.00 57 1020.9
20260906055541 23 29 0.0 1.6 0.00 0.00 0.00 61 1020.9
20260906054613 22 0.0 0.0 0.00 0.00 0.00 67 1020.8
20260906053528 21 0.0 0.0 0.00 0.00 0.00 68 1020.8
20260906052520 21 29 0.0 1.6 0.00 0.00 0.00 69 1020.7
20260906051535 21 29 0.0 1.6 0.00 0.00 0.00 70 1020.8
20260906050527 20 42 1.6 3.2 0.00 0.00 0.00 72 1020.6
20260906045521 20 57 0.0 1.6 0.00 0.00 0.00 74 1020.6
20260906044534 20 57 1.6 1.6 0.00 0.00 0.00 72 1020.6
20260906043527 20 59 0.0 1.6 0.00 0.00 0.00 72 1020.6
20260906042522 20 72 1.6 1.6 0.00 0.00 0.00 72 1020.6
20260906040528 20 276 0.0 1.6 0.00 0.00 0.00 73 1020.5
20260906035525 20 276 1.6 3.2 0.00 0.00 0.00 73 1020.4
20260906034537 20 62 1.6 3.2 0.00 0.00 0.00 70 1020.2
20260906033528 20 68 1.6 3.2 0.00 0.00 0.00 70 1020.3
20260906032522 19 57 0.0 3.2 0.00 0.00 0.00 76 1020.4
20260906031536 19 345 1.6 3.2 0.00 0.00 0.00 78 1020.3
20260906030529 19 90 1.6 3.2 0.00 0.00 0.00 77 1020.4
20260906025523 20 109 0.0 1.6 0.00 0.00 0.00 77 1020.4
20260906024536 20 109 0.0 1.6 0.00 0.00 0.00 74 1020.5
20260906023529 20 75 1.6 4.8 0.00 0.00 0.00 73 1020.5
20260906022524 20 68 1.6 3.2 0.00 0.00 0.00 72 1020.4
20260906021516 20 28 1.6 1.6 0.00 0.00 0.00 75 1020.4
20260906020534 21 324 1.6 3.2 0.00 0.00 0.00 73 1020.4
20260906015523 20 317 1.6 3.2 0.00 0.00 0.00 74 1020.4
20260906014517 20 304 1.6 1.6 0.00 0.00 0.00 73 1020.4
20260906013530 20 304 0.0 1.6 0.00 0.00 0.00 73 1020.4
20260906012524 20 328 1.6 3.2 0.00 0.00 0.00 72 1020.5
20260906011517 20 316 1.6 3.2 0.00 0.00 0.00 74 1020.5
20260906010612 20 331 3.2 3.2 0.00 0.00 0.00 74 1020.4
20260906005523 20 277 1.6 1.6 0.00 0.00 0.00 74 1020.5
20260906004516 20 102 0.0 1.6 0.00 0.00 0.00 74 1020.6
20260906003530 20 103 1.6 1.6 0.00 0.00 0.00 74 1020.6
20260906002524 20 103 0.0 1.6 0.00 0.00 0.00 74 1020.5
20260906001537 21 105 0.0 1.6 0.00 0.00 0.00 71 1020.5
20260906000531 21 341 1.6 1.6 0.00 0.00 0.00 70 1020.7
20260905235544 21 63 0.0 1.6 0.00 0.00 0.00 70 1020.7
20260905234517 21 61 0.0 1.6 0.00 0.00 0.00 70 1020.8
20260905233531 22 63 0.0 1.6 0.00 0.00 0.00 70 1020.9
20260905232524 22 77 0.0 1.6 0.00 0.00 0.00 70 1020.8
20260905231518 22 58 1.6 3.2 0.00 0.00 0.00 69 1020.8
20260905230533 22 55 1.6 4.8 0.00 0.00 0.00 69 1020.7
20260905225525 22 335 3.2 6.4 0.00 0.00 0.00 68 1020.6
20260905224540 22 335 1.6 4.8 0.00 0.00 0.00 68 1020.8
20260905223534 22 1 1.6 4.8 0.00 0.00 0.00 68 1020.7
20260905222529 22 338 3.2 9.7 0.00 0.00 0.00 69 1020.8
20260905221539 22 20 1.6 4.8 0.00 0.00 0.00 69 1020.7
20260905220535 22 323 1.6 4.8 0.00 0.00 0.00 71 1020.6
20260905215524 22 322 1.6 3.2 0.00 0.00 0.00 73 1020.5
20260905214531 22 8 1.6 3.2 0.00 0.00 0.00 74 1020.6
20260905213518 22 352 0.0 1.6 0.00 0.00 0.00 75 1020.6
20260905212526 22 277 1.6 1.6 0.00 0.00 0.00 74 1020.8
20260905211518 22 286 1.6 1.6 0.00 0.00 0.00 72 1020.6
20260905210611 22 48 0.0 1.6 0.00 0.00 0.00 73 1020.6
20260905205523 23 337 1.6 3.2 0.00 0.00 0.00 72 1020.6
20260905204517 23 321 1.6 6.4 0.00 0.00 0.00 72 1020.4
20260905203551 23 285 1.6 3.2 0.00 0.00 0.00 70 1020.4
20260905202524 23 333 1.6 6.4 0.00 0.00 0.00 69 1020.5
20260905201517 23 309 1.6 12.9 0.00 0.00 0.00 69 1020.6
20260905200531 23 336 3.2 9.7 0.00 0.00 0.00 68 1020.5
20260905195524 23 285 3.2 6.4 0.00 0.00 0.00 68 1020.6
20260905194537 23 262 3.2 4.8 0.00 0.00 0.00 67 1020.4
20260905193531 24 222 1.6 6.4 0.00 0.00 0.00 66 1020.4
20260905192524 24 293 3.2 9.7 0.00 0.00 0.00 65 1020.3
20260905191518 24 344 3.2 12.9 0.00 0.00 0.00 63 1020.2
20260905190533 24 315 3.2 6.4 0.00 0.00 0.00 61 1020.2
20260905185525 25 253 1.6 6.4 0.00 0.00 0.00 60 1020.1
20260905184518 25 255 3.2 6.4 0.00 0.00 0.00 58 1019.9
20260905183532 25 269 3.2 4.8 0.00 0.00 0.00 57 1019.9
20260905182545 25 268 3.2 4.8 0.00 0.00 0.00 54 1019.9
20260905181519 26 264 3.2 4.8 0.00 0.00 0.00 50 1019.6
20260905180534 26 257 3.2 6.4 0.00 0.00 0.00 50 1019.7
20260905175526 26 256 3.2 4.8 0.00 0.00 0.00 50 1019.6
20260905174519 26 272 1.6 3.2 0.00 0.00 0.00 52 1019.4
20260905173614 26 247 1.6 3.2 0.00 0.00 0.00 51 1019.4
20260905172526 27 231 1.6 1.6 0.00 0.00 0.00 48 1019.3
20260905171542 28 278 1.6 3.2 0.00 0.00 0.00 46 1019.3
20260905170540 28 309 1.6 6.4 0.00 0.00 0.00 45 1019.3
20260905165527 30 303 3.2 9.7 0.00 0.00 0.00 42 1019.1
20260905164520 30 286 1.6 3.2 0.00 0.00 0.00 39 1019.2
20260905163533 31 315 1.6 4.8 0.00 0.00 0.00 37 1019.1
20260905162528 31 307 3.2 4.8 0.00 0.00 0.00 37 1019.1
20260905161544 31 311 3.2 11.3 0.00 0.00 0.00 37 1019.1
20260905160535 32 330 3.2 9.7 0.00 0.00 0.00 37 1019.2
20260905155527 32 347 3.2 9.7 0.00 0.00 0.00 38 1019.1
20260905154521 32 299 3.2 9.7 0.00 0.00 0.00 39 1019.3
20260905153535 32 31 3.2 6.4 0.00 0.00 0.00 39 1019.3
20260905152528 32 322 3.2 9.7 0.00 0.00 0.00 39 1019.2
20260905151522 32 330 3.2 12.9 0.00 0.00 0.00 39 1019.3
20260905150536 32 348 6.4 14.5 0.00 0.00 0.00 37 1019.2
20260905145528 33 319 4.8 9.7 0.00 0.00 0.00 35 1019.2
20260905144522 33 285 4.8 11.3 0.00 0.00 0.00 34 1019.1
20260905143535 33 278 4.8 11.3 0.00 0.00 0.00 33 1019.3
20260905142530 33 267 6.4 14.5 0.00 0.00 0.00 35 1019.3
20260905141543 33 278 6.4 12.9 0.00 0.00 0.00 34 1019.3
20260905140536 33 234 4.8 12.9 0.00 0.00 0.00 32 1019.2
20260905135529 33 219 6.4 14.5 0.00 0.00 0.00 33 1019.3
20260905134522 33 244 3.2 9.7 0.00 0.00 0.00 33 1019.5
20260905133516 34 259 3.2 6.4 0.00 0.00 0.00 33 1019.4
20260905132531 33 243 4.8 12.9 0.00 0.00 0.00 33 1019.5
20260905131525 33 228 8.0 17.7 0.00 0.00 0.00 33 1019.5
20260905130538 33 220 8.0 17.7 0.00 0.00 0.00 33 1019.6
20260905125531 33 220 6.4 16.1 0.00 0.00 0.00 31 1019.6
20260905124526 33 210 4.8 9.7 0.00 0.00 0.00 29 1019.7
20260905123519 33 233 6.4 14.5 0.00 0.00 0.00 28 1019.7
20260905122531 33 240 4.8 11.3 0.00 0.00 0.00 28 1019.8
20260905121524 33 234 4.8 11.3 0.00 0.00 0.00 27 1020.0
20260905120538 33 271 4.8 11.3 0.00 0.00 0.00 27 1020.0
20260905115532 33 244 6.4 14.5 0.00 0.00 0.00 26 1020.0
20260905114625 33 219 3.2 9.7 0.00 0.00 0.00 26 1020.0
20260905113518 33 233 6.4 17.7 0.00 0.00 0.00 27 1020.0
20260905111525 33 246 6.4 12.9 0.00 0.00 0.00 27 1020.1
20260905110519 32 224 8.0 16.1 0.00 0.00 0.00 29 1020.1
20260905105533 32 232 6.4 20.9 0.00 0.00 0.00 28 1020.2
20260905104526 32 241 6.4 14.5 0.00 0.00 0.00 29 1020.2
20260905103519 32 231 4.8 12.9 0.00 0.00 0.00 29 1020.2
20260905102615 32 252 3.2 11.3 0.00 0.00 0.00 29 1020.2
20260905101527 32 225 6.4 12.9 0.00 0.00 0.00 29 1020.2
20260905100520 32 204 3.2 9.7 0.00 0.00 0.00 29 1020.5
20260905095533 32 222 4.8 11.3 0.00 0.00 0.00 29 1020.5
20260905094527 31 206 4.8 11.3 0.00 0.00 0.00 31 1020.4
20260905093522 31 206 3.2 6.4 0.00 0.00 0.00 33 1020.5
20260905092534 31 230 1.6 4.8 0.00 0.00 0.00 31 1020.5
20260905091527 31 276 3.2 6.4 0.00 0.00 0.00 32 1020.6
20260905090520 31 234 1.6 4.8 0.00 0.00 0.00 34 1020.4
20260905085534 30 214 1.6 4.8 0.00 0.00 0.00 35 1020.4
20260905084526 30 277 3.2 6.4 0.00 0.00 0.00 36 1020.4
20260905083519 30 217 1.6 4.8 0.00 0.00 0.00 36 1020.5
20260905082533 30 212 1.6 4.8 0.00 0.00 0.00 37 1020.4
20260905081526 30 211 1.6 4.8 0.00 0.00 0.00 39 1020.4
20260905080519 29 195 1.6 3.2 0.00 0.00 0.00 44 1020.3
20260905075534 28 188 1.6 3.2 0.00 0.00 0.00 46 1020.3
20260905074530 29 179 1.6 3.2 0.00 0.00 0.00 47 1020.3